Location: North Evanston
(42.0634°N, 87.6976°W)
Time: 02:34:24
(UTC+00:00)

Transit 2A - Pass Details

Date: 18 May 2026
Orbit: 595 x 948 km, 66.7° (Epoch: 9 June)

Event Time Altitude Azimuth Distance (km) Brightness Sun altitude
Rises 03:50:41 0° 341° (NNW) 3,223 10.6 -22.8°
Reaches altitude 10° 03:54:43 10° 11° (N) 2,201 9.0 -23.1°
Maximum altitude 03:56:45 12° 35° (NE) 1,998 8.5 -23.3°
Drops below altitude 10° 03:58:43 10° 60° (ENE) 2,110 8.3 -23.5°
Enters shadow 03:59:45 - 70° (ENE) 2,279 8.4 -23.6°
